Weather Service Report


105 
ASUS43 KDMX 281807
RWRIA 

WEATHER ROUNDUP FOR IOWA
NATIONAL WEATHER SERVICE DES MOINES IA
100 PM CDT THU AUG 28 2014

NOTE: "FAIR" INDICATES FEW OR NO CLOUDS BELOW 12,000 FEET WITH NO
SIGNIFICANT WEATHER AND/OR OBSTRUCTIONS TO VISIBILITY.

* - THESE STATIONS ARE NOT NWS STATIONS...THUS NOT UNDER NWS
QUALITY CONTROL.  THEY ALSO DO NOT REPORT WEATHER SUCH 
AS PRECIPITATION OR FOG.  

IAZ001>003-012>014-020>022-031>034-043>046-281900-
   NORTHWEST IOWA
  
CITY           SKY/WX    TMP DP  RH WIND       PRES   REMARKS
CARROLL *      PTSUNNY   75  72  88 SE12G21   29.94F                  
DENISON *      PTSUNNY   75  72  88 S8G16     29.92F                  
LE MARS *      CLOUDY    73  70  88 SE7G13    29.92F                  
ORANGE CITY *  CLOUDY    72  66  83 SE5       29.93F                  
SHELDON *      CLOUDY    70  68  94 SE8G15    29.93F FOG              
SIOUX CITY     CLOUDY    76  71  85 S12       29.89F                  
6HR MIN TEMP:  68; 6HR MAX TEMP:  77; 6HR PCP:  0.13;                

SPENCER        LGT RAIN  69  67  93 SE12      29.95F FOG              
6HR MIN TEMP:  65; 6HR MAX TEMP:  69; 6HR PCP:  0.30;                

STORM LAKE *   CLOUDY    70  70 100 SE8       29.94F                  
$$
 
IAZ055>058-069>071-079>083-090>094-281900-
   SOUTHWEST IOWA
  
CITY           SKY/WX    TMP DP  RH WIND       PRES   REMARKS
ATLANTIC *     MOSUNNY   73  70  88 SE8       29.93F                  
AUDUBON *      MOSUNNY   79  73  83 S12       29.95F HX  82           
CLARINDA *     MOSUNNY   75  73  94 SE6       29.94S                  
COUNCIL BLFS * MOSUNNY   77  73  88 S10       29.91F                  
CRESTON *      PTSUNNY   73  72  94 SE16G23   29.95F                  
HARLAN  *      CLOUDY    75  72  88 S8        29.97F                  
LAMONI         CLOUDY    75  72  90 SE7       29.98F                  
6HR MIN TEMP:  69; 6HR MAX TEMP:  75; 6HR PCP:  0.58;                

RED OAK *      SUNNY     77  72  83 SE7       29.93F                  
SHENANDOAH *   SUNNY     77  72  83 S10       29.93S                  
$$
 
IAZ047>049-059>061-072>074-084-281900-
   CENTRAL IOWA
  
CITY           SKY/WX    TMP DP  RH WIND       PRES   REMARKS
AMES           CLOUDY    71  69  93 SE12      29.97F                  
6HR MIN TEMP:  65; 6HR MAX TEMP:  71; 6HR PCP:  0.36;                

ANKENY *       CLOUDY    72  70  94 SE10      29.97F                  
CHARITON *     PTSUNNY   72  70  94 SE13      29.98F                  
DES MOINES     CLOUDY    72  69  90 SE6       29.96F                  
6HR MIN TEMP:  67; 6HR MAX TEMP:  72; 6HR PCP:  0.95;                

GRINNELL*      CLOUDY    66  64  94 E12G18    29.99F FOG              
KNOXVILLE *    PTSUNNY   70  68  94 SE13      29.96F                  
MARSHALLTOWN   LGT RAIN  67  66  97 E12       29.99F                  
6HR MIN TEMP:  65; 6HR MAX TEMP:  67; 6HR PCP:  0.38;                

PELLA *        CLOUDY    69  69  98 SE12G17   29.99F                  
PERRY *        CLOUDY    72  70  94 SE12      29.96F                  
$$
 
IAZ004>006-015-016-023>025-035-036-281900-
   NORTH CENTRAL IOWA
  
CITY           SKY/WX    TMP DP  RH WIND       PRES   REMARKS
ALGONA *       LGT RAIN  68  66  94 E9        29.97F                  
CLARION *      PTSUNNY   68  68 100 SE16G23   29.96F                  
ESTHERVILLE    CLOUDY    67  66  97 SE12      29.97F                  
6HR MIN TEMP:  62; 6HR MAX TEMP:  68; 6HR PCP:  0.38;                

FORT DODGE *   CLOUDY    70  66  88 S6        29.97R                  
MASON CITY     RAIN      65  64  97 SE12G21   30.01F FOG              
6HR MIN TEMP:  63; 6HR MAX TEMP:  66; 6HR PCP:  0.26;                

FOREST CITY *  HVY RAIN  66  66 100 E7        29.99F                  
IOWA FALLS *   CLOUDY    69  66  91 SE12G18   29.99F                  
$$

IAZ007>011-017>019-026>030-037>042-050>054-066-281900-
   NORTHEAST IOWA
  
CITY           SKY/WX    TMP DP  RH WIND       PRES   REMARKS
CEDAR RAPIDS   LGT RAIN  66  66 100 E8        30.04F FOG              
6HR MIN TEMP:  65; 6HR MAX TEMP:  68; 6HR PCP:  0.33;                

CHARLES CITY * CLOUDY    66  63  88 SE10      30.04F                  
CLINTON *      CLOUDY    72  63  73 E8        30.10F                  
DECORAH *      CLOUDY    64  63  94 SE7G13    30.06F FOG              
DUBUQUE        CLOUDY    70  62  76 SE7       30.09F                  
6HR MIN TEMP:  63; 6HR MAX TEMP:  70;                                

MONTICELLO *   CLOUDY    68  66  94 E7        30.06F                  
OELWEIN *      CLOUDY    66  64  94 SE14      30.04F                  
WATERLOO       CLOUDY    67  64  90 SE13      30.02F                  
6HR MIN TEMP:  64; 6HR MAX TEMP:  67; 6HR PCP:  0.16;                

$$
 
IAZ064-065-067-068-078-281900-
   EAST CENTRAL IOWA
  
CITY           SKY/WX    TMP DP  RH WIND       PRES   REMARKS
DAVENPORT      LGT RAIN  69  63  81 SE12      30.07F                  
6HR MIN TEMP:  65; 6HR MAX TEMP:  72; 6HR PCP:  0.14;                

IOWA CITY      HVY RAIN  66  50  57 E6        30.07S VSB 1            
6HR MIN TEMP:  66; 6HR MAX TEMP:  69; 6HR PCP:  0.41;                

MT. PLEASANT * CLOUDY    78  67  68 E10       30.00F HX  80           
MUSCATINE *    SUNNY     73  66  78 E12       30.03F                  
QUAD CITIES    RAIN      71  64  78 E10       30.06F                  
6HR MIN TEMP:  66; 6HR MAX TEMP:  73; 6HR PCP:  0.03;                

$$
 
IAZ062-063-075>077-085>089-095>099-281900-
   SOUTHEAST IOWA
  
CITY           SKY/WX    TMP DP  RH WIND       PRES   REMARKS
BURLINGTON     LGT RAIN  80  71  74 E8        30.01F HX  84           
6HR MIN TEMP:  68; 6HR MAX TEMP:  80; 6HR PCP: TRACE;                

FAIRFIELD *    CLOUDY    70  66  88 N6        30.02F                  
FORT MADISON * SUNNY     82  73  74 E10       30.01F HX  88           
KEOKUK *       SUNNY     82  73  74 SE10G17   29.99F HX  88           
OSKALOOSA *    RAIN      66  65  97 E12       30.02F                  
CENTERVILLE *  LGT RAIN  72  72 100 NE8       30.01F                  
OTTUMWA        TSTM      66  65  96 NE15      30.01F VSB 3/4          
6HR MIN TEMP:  66; 6HR MAX TEMP:  70; 6HR PCP:  1.66;                

WASHINGTON *   HVY RAIN  68  66  94 NE8       30.05R                  
$$

ABBREVIATIONS USED IN REMARKS
   TC - TEMPERATURES IN CELSIUS
  WCI - WIND CHILL INDEX
   HX - HEAT INDEX
  VSB - VISIBILITY  
$$


Return to Home page


Western Regional Climate Center, wrcc@dri.edu